Orbital Elements at Epoch 2459200.5 (2020-Dec-17.0) TDB
Reference: JPL 18 (heliocentric ecliptic J2000)
Element | Value | Uncertainty (1-sigma) | Units |
e | .1418334774361117 | 4.193e-08 | |
a | 2.431725706736849 | 1.0805e-08 | au |
q | 2.086825593579575 | 1.0492e-07 | au |
i | 2.402803635927627 | 3.6957e-06 | deg |
node | 72.89905669558618 | 0.00012206 | deg |
peri | 41.47620030627255 | 0.00012312 | deg |
M | 281.1305275430682 | 1.7014e-05 | deg |
tp | 2459503.942732749459 (2021-Oct-16.44273275) | 6.6031e-05 | TDB |
period | 1385.065480810175 3.79 | 9.2315e-06 2.527e-08 | d yr |
n | .2599155094020703 | 1.7323e-09 | deg/d |
Q | 2.776625819894122 | 1.2337e-08 | au |
|
| | Orbit Determination Parameters
Additional Information
|